Regional Weather Roundup
Issued by NWS

Home | Current Version | Previous Version | Text Only | Print | Product List | Glossary On
Versions: 1 2 3 4 5 6 7 8 9 10 11 12 13 14 15 16 17 18 19 20 21 22 23 24 25 26 27 28 29 30 31 32 33 34 35 36 37 38 39 40 41 42 43 44 45 46 47 48 49 50
000
ASUS43 KLMK 201202
RWRKY
KENTUCKY REGIONAL WEATHER ROUNDUP
NATIONAL WEATHER SERVICE LOUISVILLE KY
800 AM EDT SUN AUG 20 2017

NOTE "FAIR" INDICATES FEW OR NO CLOUDS BELOW 12,000 FEET
WITH NO SIGNIFICANT WEATHER AND/OR OBSTRUCTIONS TO VISIBILITY.

KYZ001>023-026-027-061>063-070>075-201300-
WESTERN AND SOUTH CENTRAL KENTUCKY

CITY           SKY/WX    TMP DP  RH WIND       PRES   REMARKS
PADUCAH        PTCLDY    66  63  90 CALM      30.02S
HENDERSON      CLOUDY    70  69  97 CALM      30.05R
OWENSBORO      PTCLDY    72  69  90 S6        30.05R
HOPKINSVILLE   CLEAR     67  67 100 CALM      30.06R FOG
BOWLING GREEN  CLEAR     70  69  97 CALM      30.07R
GLASGOW        CLEAR    N/A N/A N/A CALM      30.08R
$$

KYZ024-025-028>034-038-045-046-053-201300-
NORTH CENTRAL KENTUCKY

CITY           SKY/WX    TMP DP  RH WIND       PRES   REMARKS
LOUISVILLE/SDF MOSUNNY   73  69  87 CALM      30.05R
LOUISVILLE/LOU SUNNY     70  70 100 CALM      30.06R
FORT KNOX      SUNNY     69  69 100 CALM      30.05R
$$

KYZ035>037-039>044-047>052-055>060-089>105-201300-
NORTHEAST KENTUCKY

CITY           SKY/WX    TMP DP  RH WIND       PRES   REMARKS
LEXINGTON      SUNNY     70  66  87 SE5       30.09R
COVINGTON      SUNNY     70  70 100 CALM      30.07R
FRANKFORT      SUNNY     69  66  90 CALM      30.06R
$$

KYZ054-064>069-076>088-106>120-201300-
SOUTHEAST KENTUCKY

CITY           SKY/WX    TMP DP  RH WIND       PRES   REMARKS
JACKSON        SUNNY     69  66  90 CALM      30.12R
LONDON         SUNNY     67  65  93 CALM      30.11R FOG
SOMERSET       NOT AVBL
MIDDLESBORO    CLOUDY    66  66 100 CALM      30.14R FOG
MONTICELLO     MOSUNNY   67  66  97 W6        30.12R
$$





USA.gov is the U.S. government's official web portal to all federal, state and local government web resources and services.